Wind_Speed
4 5 7 8 10 11 12 14 15 16 17 18 18 19 20 20 21 20 20 18 17 15 14 12 10 9 7 6 5 5 6 7 8 10 13 15 17 18 21 23 23 24 25
4 5 7 9 10 11 12 13 14 15 16 18 19 19 20 21 21 21 21 20 18 17 15 14 12 11 9 8 7 7 8 8 9 10 12 14 16 18 20 22 24 25 26
5 6 8 9 10 11 12 13 14 16 17 18 19 19 20 21 22 22 22 21 20 18 16 15 14 13 12 11 10 10 10 10 11 12 13 15 17 18 20 21 23 25 26
7 8 9 10 11 12 13 14 15 16 17 18 19 20 21 21 22 23 23 23 22 20 19 17 16 16 15 14 13 12 12 12 13 14 15 16 18 19 21 22 23 25 26
9 9 10 12 12 13 14 15 16 17 18 19 20 21 22 23 24 24 24 24 23 22 21 20 19 18 18 17 16 16 15 15 15 16 17 18 19 20 21 23 24 25 26
10 11 12 13 14 15 16 17 17 18 19 20 21 22 24 25 26 27 27 26 26 25 25 23 22 21 20 20 20 19 19 19 18 18 19 21 21 22 22 24 25 26 28
12 13 14 15 16 17 18 18 19 20 21 22 23 25 26 27 28 29 29 29 29 29 28 27 25 24 24 23 23 22 21 21 22 22 22 23 24 25 25 26 26 27 29
15 15 16 17 18 18 19 20 21 22 23 24 26 27 29 30 31 31 31 32 32 32 32 30 29 27 26 26 26 26 25 25 25 25 25 25 26 27 28 29 29 30 31
17 18 18 19 20 21 22 23 24 25 26 27 28 30 31 32 33 34 34 35 35 35 35 34 32 30 28 28 29 30 30 30 29 29 29 29 29 29 30 32 32 32 32
20 20 21 22 23 24 25 26 27 28 29 31 32 33 35 36 37 37 38 38 38 38 38 38 36 34 33 32 32 33 34 34 34 33 33 33 33 33 33 34 34 34 34
22 23 24 25 26 27 28 29 30 31 33 34 35 37 38 39 40 40 41 41 41 41 41 41 40 38 37 36 36 36 37 37 38 37 37 36 36 37 36 37 37 37 36
25 26 27 28 29 30 31 32 33 34 36 37 39 40 41 42 43 44 44 44 45 45 44 44 43 42 41 41 40 40 41 42 41 41 41 40 40 40 40 40 40 40 39
28 30 30 31 32 33 34 35 36 38 39 41 42 44 45 45 46 47 47 47 48 48 47 47 46 45 45 45 44 44 44 44 44 44 43 43 43 43 43 43 43 43 43
31 32 33 34 35 36 37 39 40 42 43 45 46 47 48 49 50 50 50 51 51 51 51 51 50 49 48 47 47 47 47 47 48 47 47 46 45 45 45 46 46 46 45
34 35 36 38 39 40 41 42 44 45 47 49 50 51 52 53 54 54 54 55 55 54 54 53 53 52 51 50 49 49 49 49 50 50 50 49 48 48 48 47 47 47 48
38 39 40 41 42 43 44 46 47 49 51 52 53 55 56 57 57 58 58 58 58 57 56 54 54 53 52 52 52 51 51 50 51 52 51 51 51 50 50 49 49 49 49
41 42 43 44 45 46 47 48 50 52 54 55 57 58 59 60 61 61 61 60 60 59 58 56 56 55 53 53 54 53 52 51 52 52 53 53 52 52 52 51 50 50 50
43 44 45 47 47 48 50 52 53 55 56 58 60 61 62 63 63 63 63 62 61 60 59 58 57 56 54 54 54 54 53 51 51 52 53 53 53 52 51 51 51 50 50
46 47 48 49 50 52 54 55 57 58 59 61 62 64 65 65 65 64 64 63 62 61 59 58 57 56 55 53 53 53 53 51 51 51 51 50 51 51 50 50 50 51 51
48 49 51 52 53 55 57 58 60 61 62 64 65 66 67 66 66 65 64 64 62 61 59 58 57 55 54 53 52 52 53 52 51 51 51 50 50 50 50 50 50 50 50
50 52 53 55 56 58 59 61 62 64 65 65 66 67 68 68 67 66 65 63 62 61 59 58 56 55 54 54 53 52 52 51 50 50 50 49 49 49 50 51 50 49 49
53 54 55 57 58 60 62 64 65 66 67 67 68 68 68 68 67 66 64 63 62 61 60 59 58 56 55 54 53 51 50 49 48 48 48 48 48 47 48 49 50 49 48
54 56 58 60 61 63 65 66 67 67 68 69 69 69 69 68 67 66 64 62 61 61 60 59 57 55 54 52 51 50 49 47 46 46 46 46 46 46 46 47 47 48 48
57 59 61 62 64 65 66 67 68 68 69 69 69 69 68 68 66 65 64 62 61 60 59 58 56 54 52 50 48 48 46 45 44 44 44 44 43 44 44 45 45 46 46
60 62 63 64 65 66 67 68 68 69 70 70 70 69 68 67 65 64 62 61 60 59 58 56 54 51 49 47 46 45 45 45 43 42 42 42 42 41 42 42 42 43 44
62 64 65 66 66 67 68 69 70 70 70 70 70 68 67 66 64 63 61 60 58 57 55 53 50 47 45 44 43 43 43 43 42 40 41 41 40 40 41 41 41 42 43
Wind_Direction
344 350 356 359 0 360 0 1 1 1 1 1 2 2 2 2 1 0 358 355 354 354 354 353 350 348 343 324 299 274 257 254 246 236 231 228 228 229 226 224 225 227 227
332 340 346 350 352 353 354 355 355 355 355 356 357 358 357 357 357 356 355 352 349 346 344 341 337 333 331 325 308 291 274 264 255 244 237 234 233 231 230 228 228 229 231
321 327 333 339 343 344 345 346 347 348 349 350 351 351 351 351 351 350 349 347 346 342 336 330 325 319 315 313 307 297 285 274 264 253 246 242 238 237 236 234 234 232 232
312 317 322 327 331 334 336 339 340 341 343 345 345 345 344 344 344 343 342 341 338 335 330 326 320 312 305 301 298 294 289 281 269 260 253 248 244 241 239 237 237 237 236
304 308 314 319 322 325 327 330 332 333 335 337 338 338 339 339 339 338 337 335 333 328 323 320 315 309 304 298 294 289 286 283 277 266 258 253 249 246 243 241 242 241 239
300 304 309 313 316 319 321 322 323 325 327 329 331 332 333 334 334 333 332 331 328 325 320 317 312 305 300 295 290 286 282 279 277 271 264 258 253 250 246 245 245 244 243
298 301 305 308 310 312 314 315 317 319 321 323 325 326 328 328 328 327 327 326 324 321 318 313 309 303 298 294 289 285 282 278 274 270 266 262 257 253 250 248 248 246 245
295 298 300 303 305 307 308 310 311 313 315 317 319 320 322 322 322 322 321 321 319 318 315 311 307 301 296 293 288 284 281 279 275 272 268 264 262 258 254 252 250 248 248
293 295 297 299 301 302 304 306 307 309 311 313 314 315 317 317 318 317 317 317 316 315 313 309 305 299 293 289 286 283 281 279 277 273 269 266 264 261 258 256 252 250 249
292 294 295 297 299 300 301 303 305 306 308 310 311 312 313 314 314 314 313 313 313 312 311 308 304 299 290 287 285 283 280 278 276 274 271 267 265 263 261 258 255 253 252
291 293 294 295 296 298 300 301 303 305 307 308 310 310 311 312 312 311 311 311 310 309 308 306 302 297 290 285 283 281 280 278 276 274 271 268 265 262 261 259 257 255 253
289 291 293 294 295 296 298 300 302 303 305 307 308 309 309 310 310 309 309 308 308 307 306 304 300 295 289 284 281 279 278 277 276 274 272 269 266 262 260 258 257 256 254
289 290 292 293 294 295 297 299 301 303 304 305 306 307 307 308 308 307 307 306 305 305 303 302 298 293 287 283 280 278 277 275 274 273 272 270 266 262 260 258 257 256 254
289 290 291 293 294 295 296 298 300 301 303 304 305 306 306 306 306 306 305 304 304 302 301 299 296 293 287 282 279 277 276 274 273 272 271 269 266 262 259 258 256 255 254
288 290 291 292 293 295 296 297 299 301 302 304 304 305 306 306 305 305 304 303 302 301 300 298 296 292 287 282 279 276 275 273 272 271 270 268 266 263 259 257 256 255 254
288 290 290 291 293 294 296 297 299 301 302 303 304 304 305 305 305 304 303 303 302 301 299 297 295 292 287 282 279 276 273 271 270 270 269 268 265 263 260 258 256 255 253
288 289 290 291 293 294 296 297 299 301 302 303 303 303 304 304 304 303 303 302 301 300 299 297 295 292 287 283 280 276 272 270 268 268 268 267 264 261 259 257 255 254 252
289 290 291 292 293 294 296 297 299 300 301 302 302 302 303 303 303 303 302 301 300 299 298 296 295 292 287 285 282 277 272 270 268 267 267 267 264 260 257 255 254 253 252
289 290 291 292 293 294 296 298 299 300 301 301 302 302 303 303 302 302 301 301 299 298 297 296 295 292 288 286 284 277 272 270 268 266 266 265 262 259 257 254 252 251 249
289 290 291 292 294 295 297 298 299 300 301 301 302 302 302 302 302 301 301 300 298 297 297 296 294 292 289 286 283 278 272 270 268 266 264 263 260 257 255 252 250 248 247
289 290 292 293 295 296 297 298 299 300 300 301 301 302 302 302 301 301 301 299 298 296 295 295 293 291 287 285 283 278 273 271 268 265 264 261 259 256 253 251 249 247 244
290 291 293 294 295 296 297 298 299 299 300 301 301 302 302 301 301 301 300 299 297 296 295 294 292 290 288 285 281 278 274 270 269 265 263 260 258 255 252 249 247 245 242
291 292 293 294 295 296 297 298 298 299 300 301 302 302 302 301 301 300 300 298 297 296 295 293 292 289 287 284 280 277 274 270 268 265 262 259 257 254 251 248 244 243 241
292 293 294 295 296 296 297 298 298 299 300 301 302 302 302 301 301 300 299 298 297 295 294 292 290 288 285 282 278 276 274 270 267 265 261 258 254 252 249 245 242 240 239
292 293 294 295 296 297 297 298 299 299 300 301 301 301 301 301 300 299 299 298 296 295 294 292 289 287 283 279 277 274 272 269 266 264 260 256 252 248 246 243 241 238 236
293 294 295 295 296 297 297 298 299 299 300 301 301 300 300 300 299 299 298 297 296 295 293 292 289 285 281 278 276 273 271 269 266 263 259 254 249 246 244 242 240 238 236
Height
5868 5867 5865 5864 5862 5860 5857 5855 5852 5849 5847 5844 5841 5838 5834 5831 5828 5825 5822 5819 5817 5814 5813 5811 5810 5808 5808 5807 5807 5806 5807 5807 5807 5808 5809 5811 5812 5815 5817 5819 5822 5825 5827
5867 5865 5864 5862 5861 5859 5856 5854 5851 5849 5846 5843 5840 5837 5834 5830 5827 5824 5821 5818 5816 5813 5811 5810 5809 5807 5806 5806 5805 5805 5804 5804 5805 5805 5806 5807 5809 5811 5813 5815 5817 5820 5822
5865 5864 5862 5861 5859 5857 5855 5853 5850 5847 5844 5842 5839 5836 5832 5829 5826 5823 5820 5816 5814 5811 5810 5808 5806 5805 5804 5803 5803 5802 5802 5801 5801 5802 5803 5803 5805 5806 5808 5810 5812 5814 5816
5863 5862 5861 5859 5857 5855 5853 5851 5848 5846 5843 5840 5837 5834 5830 5827 5824 5820 5817 5814 5811 5809 5807 5805 5803 5802 5801 5800 5800 5799 5798 5798 5798 5798 5798 5799 5800 5801 5802 5804 5806 5808 5810
5861 5860 5858 5856 5855 5853 5850 5848 5846 5843 5840 5837 5834 5831 5828 5824 5821 5817 5814 5811 5807 5804 5802 5800 5799 5797 5796 5796 5795 5794 5794 5794 5794 5794 5794 5794 5795 5796 5797 5798 5800 5801 5803
5858 5857 5855 5853 5852 5850 5847 5845 5843 5840 5837 5834 5831 5828 5824 5820 5817 5813 5809 5806 5803 5799 5797 5794 5792 5791 5790 5790 5789 5789 5788 5788 5788 5788 5788 5789 5789 5790 5791 5792 5793 5795 5796
5854 5853 5852 5850 5848 5846 5844 5841 5839 5836 5833 5830 5827 5823 5820 5816 5812 5808 5804 5800 5796 5793 5790 5787 5785 5784 5783 5783 5782 5782 5781 5781 5781 5782 5782 5782 5782 5783 5784 5785 5786 5787 5788
5851 5849 5848 5846 5844 5842 5839 5837 5834 5831 5828 5825 5822 5818 5814 5810 5806 5802 5797 5793 5789 5785 5782 5779 5777 5775 5774 5774 5774 5774 5773 5773 5773 5773 5774 5774 5774 5774 5775 5776 5777 5778 5780
5846 5844 5843 5841 5839 5836 5834 5831 5829 5826 5822 5819 5815 5812 5808 5803 5799 5794 5790 5786 5781 5777 5773 5770 5767 5765 5765 5764 5764 5764 5764 5764 5764 5764 5764 5764 5765 5765 5766 5767 5768 5769 5770
5841 5839 5837 5835 5833 5830 5828 5825 5822 5819 5816 5812 5808 5804 5800 5795 5790 5786 5781 5777 5772 5768 5763 5759 5756 5754 5753 5752 5752 5753 5753 5753 5753 5753 5753 5754 5754 5754 5755 5756 5757 5758 5759
5834 5832 5830 5828 5826 5823 5820 5818 5814 5811 5808 5804 5800 5796 5791 5786 5781 5776 5771 5766 5761 5757 5752 5748 5744 5741 5740 5740 5739 5740 5740 5741 5741 5741 5741 5742 5742 5743 5743 5744 5745 5746 5748
5827 5825 5823 5821 5818 5815 5813 5809 5806 5802 5799 5795 5790 5786 5780 5775 5770 5765 5759 5754 5749 5745 5740 5736 5732 5729 5727 5726 5725 5726 5726 5726 5727 5727 5728 5728 5729 5730 5730 5731 5732 5734 5736
5820 5817 5815 5812 5810 5807 5804 5800 5797 5793 5789 5784 5780 5775 5770 5764 5759 5753 5747 5742 5736 5731 5727 5722 5719 5715 5713 5711 5710 5710 5710 5711 5712 5713 5713 5714 5714 5715 5716 5717 5719 5720 5722
5811 5809 5806 5803 5800 5797 5794 5790 5786 5782 5778 5773 5768 5763 5758 5752 5746 5740 5734 5728 5723 5717 5712 5707 5704 5700 5697 5696 5695 5694 5693 5694 5695 5696 5697 5698 5698 5699 5700 5702 5704 5705 5708
5801 5799 5796 5793 5790 5787 5783 5779 5775 5770 5765 5760 5755 5749 5744 5739 5732 5725 5719 5713 5707 5702 5697 5692 5688 5684 5681 5679 5678 5677 5676 5676 5677 5678 5679 5680 5681 5683 5684 5686 5688 5690 5692
5791 5789 5786 5783 5779 5775 5772 5767 5762 5757 5752 5746 5740 5734 5728 5722 5716 5709 5703 5697 5690 5685 5680 5675 5671 5667 5664 5661 5660 5659 5659 5658 5658 5659 5660 5661 5663 5664 5666 5669 5671 5673 5675
5780 5777 5774 5771 5767 5763 5759 5755 5750 5745 5738 5732 5726 5719 5712 5706 5699 5692 5686 5680 5673 5667 5662 5657 5653 5649 5645 5643 5641 5640 5640 5640 5639 5640 5641 5642 5643 5645 5647 5650 5653 5655 5658
5768 5765 5761 5758 5754 5750 5745 5741 5736 5731 5725 5719 5711 5704 5697 5690 5683 5675 5669 5662 5657 5650 5644 5639 5635 5630 5627 5624 5622 5620 5620 5620 5620 5620 5621 5622 5623 5625 5628 5631 5634 5637 5640
5755 5752 5748 5744 5740 5736 5731 5726 5720 5715 5709 5702 5696 5688 5680 5673 5666 5658 5651 5644 5638 5633 5627 5622 5616 5612 5608 5605 5602 5601 5600 5600 5600 5601 5601 5602 5604 5606 5609 5612 5615 5619 5622
5741 5738 5734 5729 5725 5720 5715 5710 5704 5698 5691 5685 5678 5670 5663 5655 5649 5641 5634 5626 5620 5614 5609 5603 5598 5594 5590 5587 5584 5582 5581 5581 5581 5582 5582 5583 5585 5587 5590 5593 5597 5601 5605
5727 5723 5719 5714 5710 5704 5699 5693 5687 5680 5674 5667 5660 5652 5644 5637 5630 5623 5616 5609 5602 5596 5590 5585 5580 5576 5572 5568 5565 5563 5562 5562 5562 5563 5563 5565 5566 5569 5572 5575 5579 5583 5587
5712 5708 5703 5698 5693 5688 5682 5675 5669 5662 5655 5648 5642 5634 5625 5617 5610 5604 5597 5590 5584 5577 5572 5567 5562 5558 5553 5550 5547 5545 5544 5544 5544 5544 5545 5547 5549 5551 5554 5557 5561 5566 5570
5696 5692 5687 5682 5676 5670 5664 5657 5651 5644 5637 5630 5622 5615 5607 5599 5592 5585 5578 5571 5565 5559 5553 5548 5543 5539 5535 5532 5529 5527 5526 5526 5526 5527 5528 5529 5531 5534 5537 5541 5545 5550 5554
5679 5675 5670 5664 5658 5652 5646 5639 5632 5625 5618 5611 5603 5596 5588 5580 5573 5566 5559 5553 5546 5541 5535 5530 5525 5521 5518 5515 5512 5511 5509 5509 5509 5510 5511 5513 5515 5518 5521 5525 5529 5534 5539
5662 5657 5652 5646 5640 5634 5627 5621 5614 5606 5599 5591 5584 5576 5569 5561 5554 5547 5541 5534 5528 5522 5517 5512 5507 5503 5500 5498 5496 5495 5494 5493 5493 5494 5496 5498 5500 5503 5507 5511 5515 5520 5525
5644 5639 5633 5627 5621 5615 5608 5601 5595 5587 5580 5572 5565 5557 5550 5543 5536 5529 5523 5516 5510 5505 5499 5494 5490 5486 5484 5482 5480 5479 5479 5479 5479 5479 5481 5483 5486 5489 5493 5497 5501 5506 5511